| time (UTC) | temp F | wind direction | speed knots | gust knots | rain 1hr in | rain 24hr in | rain mn in | humidity % | barometer mb |
| 20260509070906 | 45 | 294 | 0.0 | 0.0 | 0.00 | 0.00 | 0.00 | 58 | 1004.9 |
| 20260509070403 | 45 | 318 | 0.0 | 0.0 | 0.00 | 0.00 | 0.00 | 58 | 1005.1 |
| 20260509065858 | 45 | 288 | 0.0 | 0.0 | 0.00 | 0.00 | 0.00 | 58 | 1005.2 |
| 20260509065355 | 45 | 230 | 0.0 | 0.0 | 0.00 | 0.00 | 0.00 | 59 | 1005.2 |
| 20260509064851 | 44 | 326 | 0.0 | 0.0 | 0.00 | 0.00 | 0.00 | 60 | 1005.2 |
| 20260509064349 | 44 | 279 | 0.0 | 0.0 | 0.00 | 0.00 | 0.00 | 60 | 1005.4 |
| 20260509063846 | 43 | 238 | 0.0 | 0.0 | 0.00 | 0.00 | 0.00 | 62 | 1005.5 |
| 20260509063342 | 43 | 328 | 0.0 | 0.0 | 0.00 | 0.00 | 0.00 | 65 | 1005.4 |
| 20260509062839 | 43 | 321 | 0.0 | 0.0 | 0.00 | 0.00 | 0.00 | 69 | 1005.5 |
| 20260509062336 | 43 | 312 | 0.0 | 0.0 | 0.00 | 0.00 | 0.00 | 71 | 1005.5 |
| 20260509061834 | 43 | 292 | 0.0 | 0.0 | 0.00 | 0.00 | 0.00 | 70 | 1005.4 |
| 20260509061332 | 42 | 299 | 0.0 | 0.0 | 0.00 | 0.00 | 0.00 | 69 | 1005.5 |
| 20260509060828 | 42 | 299 | 0.0 | 0.0 | 0.00 | 0.00 | 0.00 | 70 | 1005.4 |
| 20260509060326 | 42 | 299 | 0.0 | 0.0 | 0.00 | 0.00 | 0.00 | 71 | 1005.6 |
| 20260509055821 | 43 | 301 | 0.0 | 0.0 | 0.00 | 0.00 | 0.00 | 71 | 1005.5 |
| 20260509055316 | 44 | 301 | 0.0 | 0.0 | 0.00 | 0.00 | 0.00 | 73 | 1005.6 |
| 20260509054814 | 44 | 314 | 0.0 | 0.0 | 0.00 | 0.00 | 0.00 | 72 | 1005.5 |
| 20260509054310 | 44 | 297 | 0.0 | 0.0 | 0.00 | 0.00 | 0.00 | 70 | 1005.7 |
| 20260509053809 | 44 | 322 | 0.0 | 0.0 | 0.00 | 0.00 | 0.00 | 69 | 1005.4 |
| 20260509053305 | 45 | 350 | 0.0 | 0.0 | 0.00 | 0.00 | 0.00 | 70 | 1005.5 |
| 20260509052803 | 45 | 318 | 0.0 | 0.0 | 0.00 | 0.00 | 0.00 | 69 | 1005.8 |
| 20260509052301 | 46 | 303 | 0.0 | 0.0 | 0.00 | 0.00 | 0.00 | 68 | 1005.6 |
| 20260509051758 | 45 | 284 | 0.0 | 0.0 | 0.00 | 0.00 | 0.00 | 67 | 1005.8 |
| 20260509051256 | 46 | 331 | 0.0 | 0.0 | 0.00 | 0.00 | 0.00 | 67 | 1005.7 |
| 20260509050753 | 46 | 279 | 0.0 | 0.0 | 0.00 | 0.00 | 0.00 | 67 | 1005.7 |
| 20260509050249 | 46 | 15 | 0.0 | 0.0 | 0.00 | 0.00 | 0.00 | 66 | 1005.7 |
| 20260509045747 | 46 | 260 | 0.0 | 0.0 | 0.00 | 0.00 | 0.00 | 66 | 1005.9 |
| 20260509045243 | 47 | 260 | 0.0 | 0.0 | 0.00 | 0.00 | 0.00 | 63 | 1006.0 |
| 20260509044741 | 47 | 268 | 0.0 | 0.0 | 0.00 | 0.00 | 0.00 | 62 | 1005.9 |
| 20260509044238 | 47 | 277 | 0.0 | 0.0 | 0.00 | 0.00 | 0.00 | 63 | 1005.8 |
| 20260509043734 | 47 | 287 | 0.0 | 0.0 | 0.00 | 0.00 | 0.00 | 62 | 1005.9 |
| 20260509043230 | 47 | 265 | 0.0 | 0.0 | 0.00 | 0.00 | 0.00 | 65 | 1006.0 |
| 20260509042726 | 48 | 265 | 0.0 | 0.0 | 0.00 | 0.00 | 0.00 | 63 | 1006.0 |
| 20260509042223 | 48 | 265 | 0.0 | 0.0 | 0.00 | 0.00 | 0.00 | 61 | 1006.1 |
| 20260509041720 | 48 | 265 | 0.0 | 0.0 | 0.00 | 0.00 | 0.00 | 61 | 1005.8 |
| 20260509041217 | 49 | 263 | 0.0 | 0.0 | 0.00 | 0.00 | 0.00 | 62 | 1005.9 |
| 20260509040716 | 49 | 243 | 0.0 | 0.0 | 0.00 | 0.00 | 0.00 | 60 | 1006.2 |
| 20260509040212 | 49 | 244 | 0.0 | 0.0 | 0.00 | 0.00 | 0.00 | 61 | 1006.2 |
| 20260509035708 | 49 | 257 | 0.0 | 0.0 | 0.00 | 0.00 | 0.00 | 60 | 1006.3 |
| 20260509035205 | 49 | 258 | 0.0 | 0.0 | 0.00 | 0.00 | 0.00 | 61 | 1006.3 |
| 20260509034703 | 49 | 280 | 0.0 | 0.0 | 0.00 | 0.00 | 0.00 | 62 | 1006.1 |
| 20260509034200 | 49 | 289 | 0.0 | 0.0 | 0.00 | 0.00 | 0.00 | 59 | 1006.3 |
| 20260509033657 | 50 | 323 | 0.0 | 0.0 | 0.00 | 0.00 | 0.00 | 61 | 1006.4 |
| 20260509033154 | 50 | 316 | 0.0 | 0.0 | 0.00 | 0.00 | 0.00 | 61 | 1006.3 |
| 20260509032651 | 50 | 281 | 0.0 | 0.0 | 0.00 | 0.00 | 0.00 | 62 | 1006.3 |
| 20260509032148 | 49 | 292 | 0.0 | 0.0 | 0.00 | 0.00 | 0.00 | 63 | 1006.5 |
| 20260509031646 | 49 | 292 | 0.0 | 0.0 | 0.00 | 0.00 | 0.00 | 62 | 1006.8 |
| 20260509031143 | 49 | 292 | 0.0 | 0.0 | 0.00 | 0.00 | 0.00 | 62 | 1006.7 |
| 20260509030641 | 49 | 293 | 0.0 | 0.0 | 0.00 | 0.00 | 0.00 | 60 | 1006.5 |
| 20260509030138 | 49 | 293 | 0.0 | 0.0 | 0.00 | 0.00 | 0.00 | 60 | 1006.7 |
| 20260509025634 | 49 | 293 | 0.0 | 0.0 | 0.00 | 0.00 | 0.00 | 59 | 1006.7 |
| 20260509025130 | 49 | 292 | 0.0 | 0.0 | 0.00 | 0.00 | 0.00 | 61 | 1006.8 |
| 20260509024625 | 48 | 292 | 0.0 | 0.0 | 0.00 | 0.00 | 0.00 | 63 | 1006.8 |
| 20260509024121 | 48 | 315 | 0.0 | 0.0 | 0.00 | 0.00 | 0.00 | 62 | 1006.8 |
| 20260509023620 | 48 | 322 | 0.0 | 0.0 | 0.00 | 0.00 | 0.00 | 61 | 1006.7 |
| 20260509023116 | 48 | 322 | 0.0 | 0.0 | 0.00 | 0.00 | 0.00 | 60 | 1006.9 |
| 20260509022613 | 48 | 322 | 0.0 | 0.0 | 0.00 | 0.00 | 0.00 | 60 | 1006.7 |
| 20260509022111 | 49 | 322 | 0.0 | 0.0 | 0.00 | 0.00 | 0.00 | 59 | 1006.9 |
| 20260509021607 | 49 | 267 | 0.0 | 0.0 | 0.00 | 0.00 | 0.00 | 59 | 1007.0 |
| 20260509021104 | 49 | 268 | 0.0 | 0.0 | 0.00 | 0.00 | 0.00 | 58 | 1006.7 |
| 20260509020603 | 49 | 268 | 0.0 | 0.0 | 0.00 | 0.00 | 0.00 | 58 | 1006.9 |
| 20260509020059 | 49 | 268 | 0.0 | 0.0 | 0.00 | 0.00 | 0.00 | 58 | 1006.8 |
| 20260509015558 | 50 | 268 | 0.0 | 0.0 | 0.00 | 0.00 | 0.00 | 57 | 1006.9 |
| 20260509015055 | 50 | 268 | 0.0 | 0.0 | 0.00 | 0.00 | 0.00 | 56 | 1006.8 |
| 20260509014552 | 50 | 268 | 0.0 | 0.0 | 0.00 | 0.00 | 0.00 | 55 | 1006.8 |
| 20260509014048 | 51 | 268 | 0.0 | 0.0 | 0.00 | 0.00 | 0.00 | 54 | 1006.9 |
| 20260509013545 | 51 | 267 | 0.0 | 0.0 | 0.00 | 0.00 | 0.00 | 52 | 1006.6 |
| 20260509013040 | 52 | 268 | 0.0 | 0.0 | 0.00 | 0.00 | 0.00 | 51 | 1006.7 |
| 20260509012538 | 52 | 290 | 0.0 | 0.0 | 0.00 | 0.00 | 0.00 | 50 | 1006.6 |
| 20260509012034 | 53 | 292 | 0.0 | 0.0 | 0.00 | 0.00 | 0.00 | 50 | 1006.2 |
| 20260509011532 | 53 | 292 | 0.0 | 0.0 | 0.00 | 0.00 | 0.00 | 49 | 1006.3 |
| 20260509011029 | 53 | 292 | 0.0 | 0.0 | 0.00 | 0.00 | 0.00 | 47 | 1006.4 |
| 20260509010527 | 55 | 292 | 0.0 | 0.0 | 0.00 | 0.00 | 0.00 | 46 | 1006.3 |
| 20260509010024 | 55 | 289 | 0.0 | 0.0 | 0.00 | 0.00 | 0.00 | 44 | 1006.2 |
| 20260509005521 | 56 | 293 | 0.0 | 0.0 | 0.00 | 0.00 | 0.00 | 42 | 1006.2 |
| 20260509005021 | 56 | 292 | 0.0 | 0.0 | 0.00 | 0.00 | 0.00 | 40 | 1006.3 |
| 20260509004519 | 57 | 292 | 0.0 | 0.0 | 0.00 | 0.00 | 0.00 | 39 | 1006.1 |
| 20260509004015 | 57 | 292 | 0.0 | 0.0 | 0.00 | 0.00 | 0.00 | 38 | 1006.0 |
| 20260509003514 | 58 | 292 | 0.0 | 0.0 | 0.00 | 0.00 | 0.00 | 40 | 1006.1 |
| 20260509003010 | 58 | 316 | 0.0 | 0.0 | 0.00 | 0.00 | 0.00 | 37 | 1006.0 |
| 20260509002508 | 59 | 273 | 0.0 | 0.0 | 0.00 | 0.00 | 0.00 | 36 | 1006.2 |
| 20260509002005 | 59 | 276 | 0.0 | 0.0 | 0.00 | 0.00 | 0.00 | 36 | 1006.1 |
| 20260509001502 | 59 | 294 | 0.0 | 0.0 | 0.00 | 0.00 | 0.00 | 34 | 1006.0 |
| 20260509000959 | 60 | 310 | 0.0 | 0.0 | 0.00 | 0.00 | 0.00 | 33 | 1005.9 |
| 20260509000457 | 60 | 292 | 0.0 | 0.0 | 0.00 | 0.00 | 0.00 | 35 | 1006.0 |
| 20260508235952 | 60 | 266 | 0.0 | 0.0 | 0.00 | 0.00 | 0.00 | 33 | 1006.0 |
| 20260508235450 | 61 | 298 | 0.0 | 0.0 | 0.00 | 0.00 | 0.00 | 33 | 1006.0 |
| 20260508234947 | 61 | 282 | 0.0 | 0.0 | 0.00 | 0.00 | 0.00 | 31 | 1005.8 |
| 20260508234444 | 62 | 271 | 2.6 | 4.3 | 0.00 | 0.00 | 0.00 | 31 | 1005.8 |
| 20260508233941 | 62 | 259 | 1.7 | 1.7 | 0.00 | 0.00 | 0.00 | 31 | 1005.9 |
| 20260508233441 | 62 | 250 | 0.0 | 0.9 | 0.00 | 0.00 | 0.00 | 30 | 1006.0 |
| 20260508232937 | 63 | 281 | 0.9 | 0.9 | 0.00 | 0.00 | 0.00 | 31 | 1005.6 |
| 20260508232434 | 64 | 304 | 0.0 | 0.0 | 0.00 | 0.00 | 0.00 | 29 | 1005.8 |
| 20260508231931 | 64 | 303 | 0.9 | 1.7 | 0.00 | 0.00 | 0.00 | 30 | 1005.8 |
| 20260508231428 | 64 | 309 | 0.0 | 0.0 | 0.00 | 0.00 | 0.00 | 30 | 1005.8 |
| 20260508230925 | 63 | 279 | 3.5 | 4.3 | 0.00 | 0.00 | 0.00 | 29 | 1005.8 |
| 20260508230422 | 64 | 225 | 2.6 | 2.6 | 0.00 | 0.00 | 0.00 | 29 | 1006.0 |
| 20260508225919 | 64 | 282 | 2.6 | 5.2 | 0.00 | 0.00 | 0.00 | 30 | 1006.1 |
| 20260508225415 | 64 | 353 | 0.9 | 0.9 | 0.00 | 0.00 | 0.00 | 29 | 1006.2 |
| 20260508224913 | 64 | 262 | 3.5 | 5.2 | 0.00 | 0.00 | 0.00 | 28 | 1006.2 |
| 20260508224411 | 65 | 238 | 2.6 | 4.3 | 0.00 | 0.00 | 0.00 | 30 | 1006.0 |
| 20260508223908 | 65 | 266 | 0.0 | 0.0 | 0.00 | 0.00 | 0.00 | 29 | 1006.2 |
| 20260508223406 | 66 | 325 | 0.0 | 0.0 | 0.00 | 0.00 | 0.00 | 29 | 1006.2 |
| 20260508222903 | 65 | 268 | 0.9 | 1.7 | 0.00 | 0.00 | 0.00 | 30 | 1006.1 |
| 20260508222400 | 64 | 225 | 0.9 | 0.9 | 0.00 | 0.00 | 0.00 | 31 | 1006.3 |
| 20260508221856 | 64 | 262 | 0.0 | 0.0 | 0.00 | 0.00 | 0.00 | 31 | 1006.2 |
| 20260508221352 | 64 | 242 | 0.0 | 0.0 | 0.00 | 0.00 | 0.00 | 30 | 1006.2 |
| 20260508220849 | 64 | 214 | 2.6 | 4.3 | 0.00 | 0.00 | 0.00 | 31 | 1006.6 |
| 20260508220345 | 64 | 215 | 3.5 | 5.2 | 0.00 | 0.00 | 0.00 | 30 | 1006.4 |
| 20260508215841 | 64 | 224 | 4.3 | 6.1 | 0.00 | 0.00 | 0.00 | 30 | 1006.6 |
| 20260508215338 | 64 | 246 | 1.7 | 1.7 | 0.00 | 0.00 | 0.00 | 31 | 1006.5 |
| 20260508214835 | 65 | 291 | 1.7 | 2.6 | 0.00 | 0.00 | 0.00 | 33 | 1006.6 |
| 20260508214332 | 65 | 311 | 1.7 | 2.6 | 0.00 | 0.00 | 0.00 | 30 | 1006.5 |
| 20260508213828 | 64 | 290 | 0.0 | 0.9 | 0.00 | 0.00 | 0.00 | 30 | 1006.6 |
| 20260508213325 | 64 | 66 | 0.9 | 0.9 | 0.00 | 0.00 | 0.00 | 32 | 1006.6 |
| 20260508212822 | 64 | 220 | 0.0 | 0.9 | 0.00 | 0.00 | 0.00 | 30 | 1006.8 |
| 20260508212318 | 64 | 232 | 2.6 | 4.3 | 0.00 | 0.00 | 0.00 | 30 | 1006.7 |
| 20260508211814 | 64 | 254 | 1.7 | 2.6 | 0.00 | 0.00 | 0.00 | 30 | 1006.8 |
| 20260508211309 | 64 | 279 | 6.1 | 8.7 | 0.00 | 0.00 | 0.00 | 30 | 1006.8 |
| 20260508210808 | 64 | 279 | 4.3 | 9.6 | 0.00 | 0.00 | 0.00 | 31 | 1006.8 |
| 20260508210304 | 64 | 273 | 2.6 | 4.3 | 0.00 | 0.00 | 0.00 | 30 | 1006.6 |
| 20260508205801 | 64 | 293 | 0.9 | 1.7 | 0.00 | 0.00 | 0.00 | 31 | 1006.9 |
| 20260508205257 | 64 | 273 | 1.7 | 4.3 | 0.00 | 0.00 | 0.00 | 30 | 1006.9 |
| 20260508204753 | 64 | 174 | 2.6 | 5.2 | 0.00 | 0.00 | 0.00 | 29 | 1007.0 |
| 20260508204250 | 64 | 251 | 6.1 | 11.3 | 0.00 | 0.00 | 0.00 | 29 | 1007.1 |
| 20260508203746 | 63 | 297 | 2.6 | 2.6 | 0.00 | 0.00 | 0.00 | 30 | 1006.9 |
| 20260508203243 | 65 | 294 | 3.5 | 4.3 | 0.00 | 0.00 | 0.00 | 32 | 1007.3 |
| 20260508202738 | 63 | 300 | 1.7 | 1.7 | 0.00 | 0.00 | 0.00 | 33 | 1007.4 |
| 20260508202236 | 63 | 271 | 3.5 | 7.0 | 0.00 | 0.00 | 0.00 | 32 | 1007.5 |
| 20260508201733 | 63 | 210 | 2.6 | 2.6 | 0.00 | 0.00 | 0.00 | 32 | 1007.7 |
| 20260508201229 | 63 | 216 | 1.7 | 4.3 | 0.00 | 0.00 | 0.00 | 34 | 1007.5 |
| 20260508200726 | 64 | 264 | 0.0 | 0.0 | 0.00 | 0.00 | 0.00 | 32 | 1007.7 |
| 20260508200222 | 62 | 213 | 0.9 | 0.9 | 0.00 | 0.00 | 0.00 | 33 | 1007.9 |
| 20260508195719 | 62 | 322 | 3.5 | 5.2 | 0.00 | 0.00 | 0.00 | 33 | 1007.9 |
| 20260508195215 | 63 | 247 | 1.7 | 2.6 | 0.00 | 0.00 | 0.00 | 32 | 1008.0 |
| 20260508194712 | 64 | 313 | 6.1 | 7.8 | 0.00 | 0.00 | 0.00 | 31 | 1008.0 |
| 20260508194209 | 62 | 204 | 0.0 | 0.0 | 0.00 | 0.00 | 0.00 | 33 | 1008.1 |
| 20260508193706 | 62 | 336 | 0.9 | 2.6 | 0.00 | 0.00 | 0.00 | 33 | 1008.2 |
| 20260508193203 | 63 | 203 | 2.6 | 4.3 | 0.00 | 0.00 | 0.00 | 33 | 1008.4 |
| 20260508192659 | 61 | 222 | 0.9 | 0.9 | 0.00 | 0.00 | 0.00 | 34 | 1008.4 |
| 20260508192156 | 62 | 269 | 3.5 | 4.3 | 0.00 | 0.00 | 0.00 | 34 | 1008.4 |
| 20260508191654 | 62 | 248 | 2.6 | 6.1 | 0.00 | 0.00 | 0.00 | 33 | 1008.4 |
| 20260508191150 | 63 | 308 | 2.6 | 4.3 | 0.00 | 0.00 | 0.00 | 33 | 1008.2 |
| 20260508190648 | 62 | 284 | 3.5 | 5.2 | 0.00 | 0.00 | 0.00 | 32 | 1008.8 |
| 20260508190144 | 63 | 280 | 0.9 | 0.9 | 0.00 | 0.00 | 0.00 | 34 | 1008.7 |
| 20260508185641 | 62 | 286 | 0.9 | 1.7 | 0.00 | 0.00 | 0.00 | 33 | 1008.7 |
| 20260508185138 | 63 | 221 | 3.5 | 6.1 | 0.00 | 0.00 | 0.00 | 34 | 1008.8 |
| 20260508184635 | 61 | 281 | 5.2 | 6.1 | 0.00 | 0.00 | 0.00 | 32 | 1009.0 |
| 20260508184132 | 62 | 121 | 0.0 | 0.0 | 0.00 | 0.00 | 0.00 | 35 | 1008.9 |
| 20260508183629 | 62 | 284 | 0.0 | 0.9 | 0.00 | 0.00 | 0.00 | 33 | 1008.9 |
| 20260508183125 | 61 | 327 | 0.0 | 0.0 | 0.00 | 0.00 | 0.00 | 33 | 1009.2 |
| 20260508182621 | 61 | 232 | 0.0 | 1.7 | 0.00 | 0.00 | 0.00 | 35 | 1009.3 |
| 20260508182118 | 60 | 227 | 1.7 | 2.6 | 0.00 | 0.00 | 0.00 | 36 | 1009.2 |
| 20260508181613 | 61 | 279 | 5.2 | 7.8 | 0.00 | 0.00 | 0.00 | 31 | 1009.2 |
| 20260508181111 | 61 | 224 | 4.3 | 7.0 | 0.00 | 0.00 | 0.00 | 32 | 1009.2 |
| 20260508180608 | 63 | 292 | 0.0 | 0.9 | 0.00 | 0.00 | 0.00 | 31 | 1009.2 |
| 20260508180104 | 62 | 172 | 0.0 | 0.0 | 0.00 | 0.00 | 0.00 | 33 | 1009.5 |
| 20260508175601 | 61 | 266 | 0.0 | 0.0 | 0.00 | 0.00 | 0.00 | 33 | 1009.4 |
| 20260508175058 | 61 | 273 | 4.3 | 7.8 | 0.00 | 0.00 | 0.00 | 32 | 1009.7 |
| 20260508174555 | 60 | 247 | 1.7 | 2.6 | 0.00 | 0.00 | 0.00 | 33 | 1009.8 |
| 20260508174052 | 62 | 288 | 4.3 | 5.2 | 0.00 | 0.00 | 0.00 | 32 | 1009.7 |
| 20260508173549 | 61 | 262 | 0.0 | 0.0 | 0.00 | 0.00 | 0.00 | 31 | 1009.8 |
| 20260508173045 | 60 | 283 | 2.6 | 2.6 | 0.00 | 0.00 | 0.00 | 32 | 1010.0 |
| 20260508172543 | 61 | 218 | 4.3 | 5.2 | 0.00 | 0.00 | 0.00 | 30 | 1010.3 |
| 20260508172039 | 60 | 201 | 0.0 | 0.9 | 0.00 | 0.00 | 0.00 | 33 | 1010.1 |
| 20260508171536 | 59 | 214 | 0.0 | 0.9 | 0.00 | 0.00 | 0.00 | 33 | 1010.3 |
| 20260508171032 | 61 | 217 | 5.2 | 7.8 | 0.00 | 0.00 | 0.00 | 33 | 1010.1 |
| 20260508170529 | 60 | 36 | 0.0 | 0.9 | 0.00 | 0.00 | 0.00 | 32 | 1010.3 |
| 20260508170027 | 59 | 275 | 0.9 | 1.7 | 0.00 | 0.00 | 0.00 | 34 | 1010.4 |
| 20260508165524 | 60 | 320 | 0.0 | 0.9 | 0.00 | 0.00 | 0.00 | 32 | 1010.4 |
| 20260508165020 | 58 | 271 | 0.9 | 1.7 | 0.00 | 0.00 | 0.00 | 32 | 1010.5 |
| 20260508164517 | 58 | 219 | 3.5 | 6.1 | 0.00 | 0.00 | 0.00 | 32 | 1010.6 |
| 20260508164014 | 58 | 289 | 2.6 | 4.3 | 0.00 | 0.00 | 0.00 | 35 | 1010.6 |
| 20260508163511 | 58 | 333 | 1.7 | 4.3 | 0.00 | 0.00 | 0.00 | 34 | 1010.7 |
| 20260508163008 | 59 | 209 | 0.0 | 0.0 | 0.00 | 0.00 | 0.00 | 36 | 1010.9 |
| 20260508162505 | 58 | 49 | 0.0 | 0.0 | 0.00 | 0.00 | 0.00 | 34 | 1010.8 |
| 20260508162002 | 58 | 253 | 0.9 | 1.7 | 0.00 | 0.00 | 0.00 | 33 | 1010.9 |
| 20260508161458 | 57 | 248 | 0.9 | 1.7 | 0.00 | 0.00 | 0.00 | 36 | 1010.9 |
| 20260508160956 | 58 | 199 | 1.7 | 2.6 | 0.00 | 0.00 | 0.00 | 38 | 1011.0 |
| 20260508160454 | 58 | 288 | 7.0 | 7.0 | 0.00 | 0.00 | 0.00 | 35 | 1011.0 |
| 20260508155950 | 59 | 296 | 4.3 | 5.2 | 0.00 | 0.00 | 0.00 | 37 | 1010.8 |
| 20260508155448 | 57 | 289 | 0.0 | 0.0 | 0.00 | 0.00 | 0.00 | 40 | 1010.9 |
| 20260508154944 | 58 | 276 | 3.5 | 4.3 | 0.00 | 0.00 | 0.00 | 37 | 1011.0 |
| 20260508154442 | 58 | 287 | 0.9 | 1.7 | 0.00 | 0.00 | 0.00 | 40 | 1011.2 |
| 20260508153938 | 57 | 308 | 0.0 | 0.0 | 0.00 | 0.00 | 0.00 | 40 | 1011.3 |
| 20260508153436 | 59 | 290 | 0.9 | 0.9 | 0.00 | 0.00 | 0.00 | 39 | 1011.2 |
| 20260508152932 | 57 | 80 | 0.9 | 1.7 | 0.00 | 0.00 | 0.00 | 40 | 1011.1 |
| 20260508152428 | 56 | 282 | 1.7 | 4.3 | 0.00 | 0.00 | 0.00 | 43 | 1011.1 |
| 20260508151925 | 57 | 263 | 0.0 | 1.7 | 0.00 | 0.00 | 0.00 | 43 | 1011.3 |
| 20260508151422 | 56 | 223 | 0.0 | 0.0 | 0.00 | 0.00 | 0.00 | 44 | 1011.5 |
| 20260508150918 | 56 | 240 | 1.7 | 2.6 | 0.00 | 0.00 | 0.00 | 43 | 1011.3 |
| 20260508150415 | 55 | 260 | 0.9 | 0.9 | 0.00 | 0.00 | 0.00 | 42 | 1011.4 |
| 20260508145911 | 56 | 279 | 1.7 | 1.7 | 0.00 | 0.00 | 0.00 | 40 | 1011.6 |
| 20260508145407 | 55 | 292 | 5.2 | 7.0 | 0.00 | 0.00 | 0.00 | 42 | 1011.4 |
| 20260508144904 | 56 | 245 | 0.0 | 0.9 | 0.00 | 0.00 | 0.00 | 45 | 1011.6 |
| 20260508144402 | 56 | 309 | 1.7 | 1.7 | 0.00 | 0.00 | 0.00 | 44 | 1011.8 |
| 20260508143859 | 56 | 209 | 0.9 | 0.9 | 0.00 | 0.00 | 0.00 | 46 | 1011.4 |
| 20260508143357 | 56 | 120 | 0.0 | 0.0 | 0.00 | 0.00 | 0.00 | 44 | 1011.4 |
| 20260508142853 | 55 | 334 | 4.3 | 6.1 | 0.00 | 0.00 | 0.00 | 48 | 1011.8 |
| 20260508142350 | 55 | 321 | 1.7 | 1.7 | 0.00 | 0.00 | 0.00 | 50 | 1011.7 |
| 20260508141846 | 54 | 80 | 0.0 | 0.0 | 0.00 | 0.00 | 0.00 | 50 | 1011.6 |
| 20260508141343 | 53 | 212 | 0.0 | 0.0 | 0.00 | 0.00 | 0.00 | 52 | 1011.7 |
| 20260508140841 | 53 | 299 | 2.6 | 2.6 | 0.00 | 0.00 | 0.00 | 52 | 1011.7 |
| 20260508140338 | 55 | 237 | 0.9 | 1.7 | 0.00 | 0.00 | 0.00 | 53 | 1011.7 |
| 20260508135833 | 53 | 223 | 0.0 | 0.0 | 0.00 | 0.00 | 0.00 | 52 | 1011.9 |
| 20260508135330 | 52 | 267 | 0.9 | 1.7 | 0.00 | 0.00 | 0.00 | 57 | 1012.0 |
| 20260508134826 | 53 | 251 | 0.9 | 0.9 | 0.00 | 0.00 | 0.00 | 56 | 1011.9 |
| 20260508134323 | 54 | 275 | 0.0 | 0.0 | 0.00 | 0.00 | 0.00 | 58 | 1012.0 |
| 20260508133819 | 51 | 312 | 0.0 | 0.0 | 0.00 | 0.00 | 0.00 | 58 | 1011.7 |
| 20260508133318 | 51 | 266 | 0.9 | 1.7 | 0.00 | 0.00 | 0.00 | 59 | 1012.2 |
| 20260508132814 | 51 | 252 | 0.0 | 0.9 | 0.00 | 0.00 | 0.00 | 57 | 1012.0 |
| 20260508132312 | 51 | 260 | 1.7 | 2.6 | 0.00 | 0.00 | 0.00 | 57 | 1012.2 |
| 20260508131808 | 52 | 223 | 1.7 | 1.7 | 0.00 | 0.00 | 0.00 | 58 | 1012.2 |
| 20260508131303 | 52 | 234 | 0.0 | 0.0 | 0.00 | 0.00 | 0.00 | 60 | 1012.2 |
| 20260508130755 | 51 | 287 | 0.0 | 0.0 | 0.00 | 0.00 | 0.00 | 63 | 1012.0 |
| 20260508130252 | 51 | 174 | 0.0 | 0.0 | 0.00 | 0.00 | 0.00 | 61 | 1012.1 |
| 20260508125748 | 50 | 305 | 0.0 | 0.0 | 0.00 | 0.00 | 0.00 | 65 | 1012.1 |
| 20260508125244 | 50 | 265 | 0.0 | 0.0 | 0.00 | 0.00 | 0.00 | 67 | 1012.1 |
| 20260508124743 | 49 | 225 | 0.0 | 0.0 | 0.00 | 0.00 | 0.00 | 67 | 1011.9 |
| 20260508124239 | 49 | 212 | 0.0 | 0.0 | 0.00 | 0.00 | 0.00 | 70 | 1012.0 |
| 20260508123738 | 48 | 293 | 0.0 | 0.0 | 0.00 | 0.00 | 0.00 | 75 | 1011.8 |
| 20260508123235 | 47 | 216 | 0.0 | 0.0 | 0.00 | 0.00 | 0.00 | 76 | 1012.0 |
| 20260508122731 | 46 | 289 | 0.0 | 0.0 | 0.00 | 0.00 | 0.00 | 82 | 1011.9 |
| 20260508122228 | 44 | 272 | 0.0 | 0.0 | 0.00 | 0.00 | 0.00 | 90 | 1011.9 |
| 20260508121726 | 43 | 262 | 0.0 | 0.0 | 0.00 | 0.00 | 0.00 | 95 | 1011.9 |
| 20260508121224 | 42 | 213 | 0.0 | 0.0 | 0.00 | 0.00 | 0.00 | 99 | 1011.5 |
| 20260508120721 | 41 | 292 | 0.0 | 0.0 | 0.00 | 0.00 | 0.00 | 99 | 1011.6 |
| 20260508120219 | 41 | 292 | 0.0 | 0.0 | 0.00 | 0.00 | 0.00 | 99 | 1011.6 |
| 20260508115716 | 40 | 222 | 0.0 | 0.0 | 0.00 | 0.00 | 0.00 | 99 | 1011.7 |
| 20260508115214 | 40 | 274 | 0.0 | 0.0 | 0.00 | 0.00 | 0.00 | 99 | 1011.6 |
| 20260508114710 | 39 | 313 | 0.0 | 0.0 | 0.00 | 0.00 | 0.00 | 99 | 1011.4 |
| 20260508114207 | 39 | 293 | 0.0 | 0.0 | 0.00 | 0.00 | 0.00 | 99 | 1011.6 |
| 20260508113703 | 38 | 292 | 0.0 | 0.0 | 0.00 | 0.00 | 0.00 | 99 | 1011.4 |
| 20260508113202 | 38 | 300 | 0.0 | 0.0 | 0.00 | 0.00 | 0.00 | 99 | 1011.3 |
| 20260508112658 | 38 | 320 | 0.0 | 0.0 | 0.00 | 0.00 | 0.00 | 99 | 1011.3 |
| 20260508112155 | 39 | 325 | 0.0 | 0.0 | 0.00 | 0.00 | 0.00 | 99 | 1011.2 |
| 20260508111651 | 37 | 322 | 0.0 | 0.0 | 0.00 | 0.00 | 0.00 | 99 | 1011.4 |
| 20260508111149 | 37 | 347 | 0.0 | 0.0 | 0.00 | 0.00 | 0.00 | 99 | 1011.4 |
| 20260508110646 | 35 | 315 | 0.0 | 0.0 | 0.00 | 0.00 | 0.00 | 99 | 1011.4 |
| 20260508110143 | 34 | 315 | 0.0 | 0.0 | 0.00 | 0.00 | 0.00 | 99 | 1011.2 |
| 20260508105638 | 34 | 315 | 0.0 | 0.0 | 0.00 | 0.00 | 0.00 | 99 | 1011.3 |
| 20260508105135 | 34 | 315 | 0.0 | 0.0 | 0.00 | 0.00 | 0.00 | 99 | 1011.3 |
| 20260508104633 | 34 | 312 | 0.0 | 0.0 | 0.00 | 0.00 | 0.00 | 99 | 1011.6 |
| 20260508104129 | 33 | 312 | 0.0 | 0.0 | 0.00 | 0.00 | 0.00 | 99 | 1011.4 |
| 20260508103626 | 34 | 311 | 0.0 | 0.0 | 0.00 | 0.00 | 0.00 | 99 | 1011.4 |
| 20260508103123 | 34 | 297 | 0.0 | 0.0 | 0.00 | 0.00 | 0.00 | 99 | 1011.4 |
| 20260508102621 | 34 | 294 | 0.0 | 0.0 | 0.00 | 0.00 | 0.00 | 99 | 1011.5 |
| 20260508102119 | 34 | 294 | 0.0 | 0.0 | 0.00 | 0.00 | 0.00 | 99 | 1011.6 |
| 20260508101616 | 34 | 294 | 0.0 | 0.0 | 0.00 | 0.00 | 0.00 | 99 | 1011.4 |
| 20260508101113 | 35 | 291 | 0.0 | 0.0 | 0.00 | 0.00 | 0.00 | 99 | 1011.5 |
| 20260508100610 | 35 | 289 | 0.0 | 0.0 | 0.00 | 0.00 | 0.00 | 99 | 1011.4 |
| 20260508100108 | 35 | 299 | 0.0 | 0.0 | 0.00 | 0.00 | 0.00 | 99 | 1011.3 |
| 20260508095604 | 35 | 311 | 0.0 | 0.0 | 0.00 | 0.00 | 0.00 | 99 | 1011.4 |
| 20260508095101 | 35 | 311 | 0.0 | 0.0 | 0.00 | 0.00 | 0.00 | 99 | 1011.4 |
| 20260508094559 | 35 | 336 | 0.0 | 0.0 | 0.00 | 0.00 | 0.00 | 99 | 1011.4 |
| 20260508094055 | 35 | 311 | 0.0 | 0.0 | 0.00 | 0.00 | 0.00 | 99 | 1011.5 |
| 20260508093553 | 35 | 320 | 0.0 | 0.0 | 0.00 | 0.00 | 0.00 | 99 | 1011.4 |
| 20260508093050 | 36 | 324 | 0.0 | 0.0 | 0.00 | 0.00 | 0.00 | 99 | 1011.6 |
| 20260508092547 | 36 | 296 | 0.0 | 0.0 | 0.00 | 0.00 | 0.00 | 99 | 1011.6 |
| 20260508092046 | 36 | 295 | 0.0 | 0.0 | 0.00 | 0.00 | 0.00 | 99 | 1011.5 |
| 20260508091542 | 36 | 311 | 0.0 | 0.0 | 0.00 | 0.00 | 0.00 | 99 | 1011.7 |
| 20260508091039 | 36 | 314 | 0.0 | 0.0 | 0.00 | 0.00 | 0.00 | 99 | 1011.6 |
| 20260508090538 | 36 | 305 | 0.0 | 0.0 | 0.00 | 0.00 | 0.00 | 99 | 1011.7 |
| 20260508090034 | 36 | 306 | 0.0 | 0.0 | 0.00 | 0.00 | 0.00 | 99 | 1011.5 |
| 20260508085530 | 37 | 305 | 0.0 | 0.0 | 0.00 | 0.00 | 0.00 | 99 | 1011.7 |
| 20260508085028 | 37 | 291 | 0.0 | 0.0 | 0.00 | 0.00 | 0.00 | 99 | 1011.7 |
| 20260508084525 | 38 | 291 | 0.0 | 0.0 | 0.00 | 0.00 | 0.00 | 99 | 1011.7 |
| 20260508084022 | 38 | 286 | 0.0 | 0.0 | 0.00 | 0.00 | 0.00 | 99 | 1011.6 |
| 20260508083519 | 38 | 283 | 0.0 | 0.0 | 0.00 | 0.00 | 0.00 | 99 | 1011.5 |
| 20260508083015 | 38 | 306 | 0.0 | 0.0 | 0.00 | 0.00 | 0.00 | 99 | 1011.7 |
| 20260508082511 | 38 | 325 | 0.0 | 0.0 | 0.00 | 0.00 | 0.00 | 99 | 1011.6 |
| 20260508082009 | 38 | 332 | 0.0 | 0.0 | 0.00 | 0.00 | 0.00 | 99 | 1011.8 |
| 20260508081506 | 39 | 285 | 0.0 | 0.0 | 0.00 | 0.00 | 0.00 | 99 | 1011.6 |
| 20260508081002 | 39 | 285 | 0.0 | 0.0 | 0.00 | 0.00 | 0.00 | 99 | 1011.8 |
| 20260508080500 | 39 | 292 | 0.0 | 0.0 | 0.00 | 0.00 | 0.00 | 99 | 1011.6 |
| 20260508075957 | 39 | 307 | 0.0 | 0.0 | 0.00 | 0.00 | 0.00 | 99 | 1011.8 |
| 20260508075454 | 39 | 291 | 0.0 | 0.0 | 0.00 | 0.00 | 0.00 | 99 | 1011.7 |
| 20260508074951 | 39 | 302 | 0.0 | 0.0 | 0.00 | 0.00 | 0.00 | 99 | 1011.7 |
| 20260508074449 | 40 | 301 | 0.0 | 0.0 | 0.00 | 0.00 | 0.00 | 99 | 1011.7 |
| 20260508073945 | 40 | 316 | 0.0 | 0.0 | 0.00 | 0.00 | 0.00 | 98 | 1011.6 |
| 20260508073443 | 40 | 298 | 0.0 | 0.0 | 0.00 | 0.00 | 0.00 | 98 | 1011.6 |
| 20260508072940 | 41 | 283 | 0.0 | 0.0 | 0.00 | 0.00 | 0.00 | 98 | 1011.5 |
| 20260508072436 | 41 | 282 | 0.0 | 0.0 | 0.00 | 0.00 | 0.00 | 97 | 1011.5 |
| 20260508071934 | 41 | 288 | 0.0 | 0.0 | 0.00 | 0.00 | 0.00 | 97 | 1011.5 |
| 20260508071431 | 41 | 309 | 0.0 | 0.0 | 0.00 | 0.00 | 0.00 | 96 | 1011.5 |